Weather History for KWRL - February, 2013

Change the Weather History Date:

Friday, February 1, 2013

  Actual Average Record
Temperature  
Mean Temperature 22 °F 19 °F  
Max Temperature 36 °F 33 °F 53 °F (1992)
Min Temperature 8 °F 6 °F -34 °F (1985)
Degree Days  
Heating Degree Days 43 46  
Month to date heating degree days 43 46  
Since 1 July heating degree days 4369 4894  
Cooling Degree Days 0 0  
Month to date cooling degree days 0 0  
Year to date cooling degree days 0 0  
Moisture  
Dew Point 14 °F    
Average Humidity 82    
Maximum Humidity 100    
Minimum Humidity 64    
Precipitation  
Precipitation 0.00 in 0.01 in 0.15 in (1968)
Month to date precipitation 0.00 0.01  
Year to date precipitation 0.13 0.24  
Sea Level Pressure  
Sea Level Pressure 30.23 in    
Wind  
Wind Speed 3 mph (SSE)    
Max Wind Speed 13 mph    
Max Gust Speed 13 mph    
Visibility 6 miles    
Events Fog    
T = Trace of Precipitation, MM = Missing Value Source: NWS Daily Summary

Daily Weather History Graph

Daily Weather History Graph

Search for Another Location

Airport or City:

Trip Planner

Search our weather history database for the weather conditions in past years. The results will help you decide how hot, cold, wet, or windy it might be!

Date:

Astronomy

Feb. 01, 2013 Rise Set
Actual Time 7:28 AM MST 5:22 PM MST
Civil Twilight 6:58 AM MST 5:53 PM MST
Nautical Twilight 6:23 AM MST 6:27 PM MST
Astronomical Twilight 5:49 AM MST 7:01 PM MST
Moon 11:48 PM MST (2/1) 9:49 AM MST (2/1)
Length of Visible Light 10h 55m
Length of Day
9h 54m
Waning Gibbous, 69% of the Moon is Illuminated
Feb 1
Waning Gibbous
Feb 3
Last Quarter
Feb 10
New
Feb 17
First Quarter
Feb 25
Full

Hourly Weather History & Observations

Time (MST) Temp. Windchill Dew Point Humidity Pressure Visibility Wind Dir Wind Speed Gust Speed Precip Events Conditions
12:53 AM 15.1 °F 7.7 °F 12.9 °F 91% 30.21 in 10.0 mi SSW 4.6 mph - N/A   Partly Cloudy
1:53 AM 8.1 °F - 6.1 °F 92% 30.22 in 10.0 mi Calm Calm - N/A   Clear
2:53 AM 10.0 °F 3.6 °F 8.1 °F 92% 30.20 in 9.0 mi East 3.5 mph - N/A   Partly Cloudy
3:53 AM 10.0 °F 3.6 °F 7.0 °F 87% 30.17 in 10.0 mi Variable 3.5 mph - N/A   Mostly Cloudy
4:53 AM 12.9 °F 3.8 °F 10.9 °F 92% 30.19 in 10.0 mi SSW 5.8 mph - N/A   Partly Cloudy
5:53 AM 15.1 °F 9.4 °F 12.0 °F 88% 30.20 in 10.0 mi WNW 3.5 mph - N/A   Overcast
6:53 AM 15.1 °F - 12.0 °F 88% 30.19 in 10.0 mi Calm Calm - N/A   Overcast
7:53 AM 16.0 °F - 12.9 °F 88% 30.19 in 9.0 mi Calm Calm - N/A   Overcast
8:53 AM 17.1 °F 11.7 °F 15.1 °F 92% 30.19 in 10.0 mi South 3.5 mph - N/A   Overcast
10:53 AM 21.9 °F - 18.0 °F 85% 30.25 in 9.0 mi Calm Calm - N/A   Overcast
11:53 AM 24.1 °F 17.0 °F 19.0 °F 81% 30.27 in 10.0 mi South 5.8 mph - N/A   Partly Cloudy
1:53 PM 30.9 °F 27.5 °F 23.0 °F 72% 30.25 in 10.0 mi South 3.5 mph - N/A   Overcast
2:53 PM 34.0 °F 29.8 °F 24.1 °F 67% 30.24 in 10.0 mi SSE 4.6 mph - N/A   Partly Cloudy
3:53 PM 35.1 °F - 25.0 °F 67% 30.25 in 10.0 mi Calm Calm - N/A   Clear
4:53 PM 30.0 °F 25.2 °F 23.0 °F 75% 30.25 in 10.0 mi NE 4.6 mph - N/A   Clear
5:53 PM 23.0 °F - 19.9 °F 88% 30.28 in 10.0 mi Calm Calm - N/A   Clear
6:53 PM 19.0 °F - 17.1 °F 92% 30.31 in 10.0 mi Calm Calm - N/A   Clear
7:53 PM 19.0 °F - 18.0 °F 96% 30.32 in 6.0 mi Calm Calm - N/A   Clear
8:13 PM 17.6 °F - 17.6 °F 100% 30.15 in 1.2 mi Calm Calm - N/A   Clear
8:20 PM 15.8 °F - 14.0 °F 93% 30.15 in 0.5 mi Calm Calm - N/A Fog Light Freezing Fog
8:25 PM 17.6 °F - 15.8 °F 93% 30.16 in 2.5 mi Calm Calm - N/A   Clear
8:34 PM 12.2 °F - 12.2 °F 100% 30.16 in 0.8 mi Calm Calm - N/A   Clear
8:46 PM 15.8 °F - 14.0 °F 93% 30.17 in 2.5 mi Calm Calm - N/A   Clear
8:53 PM 16.0 °F - 15.1 °F 96% 30.35 in 1.2 mi Calm Calm - N/A   Partly Cloudy
8:55 PM 15.8 °F - 15.8 °F 100% 30.17 in 0.8 mi Calm Calm - N/A   Mist
9:32 PM 10.4 °F 4.0 °F 8.6 °F 92% 30.20 in 0.2 mi NNE 3.5 mph - N/A Fog Light Freezing Fog
9:53 PM 14.0 °F - 12.9 °F 95% 30.40 in 1.0 mi Calm Calm - N/A   Mist
10:06 PM 12.2 °F 4.3 °F 10.4 °F 92% 30.22 in 1.8 mi East 4.6 mph - N/A   Partly Cloudy
10:13 PM 12.2 °F 0.7 °F 10.4 °F 92% 30.21 in 0.8 mi East 8.1 mph - N/A   Mist
10:23 PM 14.0 °F 2.9 °F 12.2 °F 93% 30.21 in 0.2 mi ESE 8.1 mph - N/A Fog Light Freezing Fog
10:44 PM 12.2 °F 0.7 °F 10.4 °F 92% 30.21 in 1.0 mi SW 8.1 mph - N/A   Mist
10:47 PM 12.2 °F 1.7 °F 8.6 °F 85% 30.22 in 3.0 mi South 6.9 mph - N/A   Mostly Cloudy
10:53 PM 12.0 °F -0.4 °F 10.0 °F 92% 30.40 in 4.0 mi South 9.2 mph - N/A   Mostly Cloudy
11:05 PM 14.0 °F 1.2 °F 10.4 °F 86% 30.23 in 10.0 mi South 10.4 mph - N/A   Partly Cloudy
11:53 PM 10.9 °F 4.7 °F 8.1 °F 88% 30.42 in 10.0 mi WNW 3.5 mph - N/A   Clear